Terminal Aerodrome Forecast
Issued by NWS

Home | Current Version | Previous Version | Graphics & Text | Print | Product List | Glossary On
Versions: 1 2 3 4 5 6 7 8 9 10 11 12 13 14
209
FTUS43 KUNR 050520
TAFGCC
TAF
KGCC 050520Z 0506/0606 29013KT P6SM BKN060
      TEMPO 0506/0510 5SM -SHSN BKN035
     FM051600 27009KT P6SM SCT150=

USA.gov is the U.S. government's official web portal to all federal, state and local government web resources and services.